sat.trackr.live / text

‹ back to catalog

GSAT-30

NORAD 45026 · 2020-005A

PAYLOAD ACTIVE UNKNOWN

§ Identity

Operator
Country
IND
Launch date
2020-01-16
Launch site
FRGUI
Launch vehicle
Mass (kg)
RCS (m²)

Purposes: comms

External: N2YO · Heavens-Above · Gunter

§ Orbital elements

Epoch: 2026-09-20T03:37:48.337824Z

Period
1,436.08 min
Inclination
0.0269°
Eccentricity
0.0001976
Mean motion
1.00272717 rev/d
Perigee alt
35,778.0 km
Apogee alt
35,794.7 km
Semi-major
42,164.5 km
B*
0.0000e+0
RAAN
103.7622°
Arg perigee
31.5002°
Mean anomaly
1.2502°
Rev number
2,446

§ Raw data

GSAT-301 45026U 20005A   26263.15125391 -.00000169  00000+0  00000+0 0  99952 45026   0.0269 103.7622 0001976  31.5002   1.2502  1.00272717 24464

JSON: /api/v1/satellites/45026 · /tle

For live sub-satellite position, see the globe view (requires WebGL).

§ Visibility from observer

Set your observer location to see the next 7 days of passes ≥ 10°. The values pass through the URL so the page stays shareable.

No JS? Fill the form by hand. The geolocation button needs JavaScript.